Time,TemperatureF,DewpointF,PressureIn,WindDirection,WindDirectionDegrees,WindSpeedMPH,WindSpeedGustMPH,Humidity,HourlyPrecipIn,Conditions,Clouds,dailyrainin,SoftwareType,DateUTC
2013-10-25 00:13:00,42.1,36.0,30.09,NW,317,17.0,20.0,79,0.00,,,0.00,weatherlink.com 1.10,2013-10-25 04:13:00,
2013-10-25 00:28:00,40.7,36.0,30.09,WSW,255,6.0,14.0,83,0.00,,,0.00,weatherlink.com 1.10,2013-10-25 04:28:00,
2013-10-25 00:43:00,39.6,36.0,30.09,West,267,6.0,12.0,86,0.00,,,0.00,weatherlink.com 1.10,2013-10-25 04:43:00,
2013-10-25 00:58:00,38.9,36.0,30.10,West,272,6.0,8.0,88,0.00,,,0.00,weatherlink.com 1.10,2013-10-25 04:58:00,
2013-10-25 01:13:00,38.5,36.0,30.10,WSW,246,4.0,11.0,89,0.00,,,0.00,weatherlink.com 1.10,2013-10-25 05:13:00,
2013-10-25 01:28:00,38.4,36.0,30.11,WSW,257,10.0,10.0,89,0.00,,,0.00,weatherlink.com 1.10,2013-10-25 05:28:00,
2013-10-25 01:43:00,38.4,36.0,30.11,WSW,244,7.0,10.0,89,0.00,,,0.00,weatherlink.com 1.10,2013-10-25 05:43:00,
2013-10-25 01:58:00,38.2,36.0,30.11,WNW,292,3.0,6.0,90,0.00,,,0.00,weatherlink.com 1.10,2013-10-25 05:58:00,
2013-10-25 02:13:00,38.1,36.0,30.12,WNW,290,3.0,11.0,91,0.01,,,0.01,weatherlink.com 1.10,2013-10-25 06:13:00,
2013-10-25 02:28:00,39.0,36.0,30.13,WNW,302,11.0,15.0,89,0.01,,,0.01,weatherlink.com 1.10,2013-10-25 06:28:00,
2013-10-25 02:43:00,39.9,36.0,30.13,West,269,3.0,11.0,84,0.01,,,0.01,weatherlink.com 1.10,2013-10-25 06:43:00,
2013-10-25 02:58:00,40.1,36.0,30.13,NNW,332,12.0,14.0,85,0.01,,,0.01,weatherlink.com 1.10,2013-10-25 06:58:00,
2013-10-25 03:14:00,39.8,35.0,30.14,NNW,331,15.0,17.0,83,0.00,,,0.01,weatherlink.com 1.10,2013-10-25 07:14:00,
2013-10-25 03:29:00,39.5,35.0,30.14,NNW,338,13.0,18.0,83,0.00,,,0.01,weatherlink.com 1.10,2013-10-25 07:29:00,
2013-10-25 03:44:00,39.3,34.0,30.14,NNW,330,14.0,18.0,82,0.00,,,0.01,weatherlink.com 1.10,2013-10-25 07:44:00,
2013-10-25 03:59:00,38.9,32.0,30.14,NNW,333,13.0,18.0,76,0.00,,,0.01,weatherlink.com 1.10,2013-10-25 07:59:00,
2013-10-25 04:14:00,38.5,32.0,30.15,NNW,327,9.0,15.0,76,0.00,,,0.01,weatherlink.com 1.10,2013-10-25 08:14:00,
2013-10-25 04:29:00,37.9,31.0,30.15,North,355,11.0,12.0,77,0.00,,,0.01,weatherlink.com 1.10,2013-10-25 08:29:00,
2013-10-25 04:44:00,37.7,30.0,30.15,NNW,344,7.0,12.0,75,0.00,,,0.01,weatherlink.com 1.10,2013-10-25 08:44:00,
2013-10-25 04:59:00,37.7,30.0,30.15,NW,324,6.0,12.0,75,0.00,,,0.01,weatherlink.com 1.10,2013-10-25 08:59:00,
2013-10-25 05:14:00,37.4,30.0,30.15,NNW,329,6.0,8.0,76,0.00,,,0.01,weatherlink.com 1.10,2013-10-25 09:14:00,
2013-10-25 05:29:00,37.3,30.0,30.16,West,264,1.0,10.0,75,0.00,,,0.01,weatherlink.com 1.10,2013-10-25 09:29:00,
2013-10-25 05:44:00,34.2,29.0,30.17,West,266,2.0,4.0,80,0.00,,,0.01,weatherlink.com 1.10,2013-10-25 09:44:00,
2013-10-25 05:59:00,33.7,28.0,30.17,WSW,247,2.0,6.0,81,0.00,,,0.01,weatherlink.com 1.10,2013-10-25 09:59:00,
2013-10-25 06:14:00,32.5,28.0,30.18,WSW,242,2.0,4.0,84,0.00,,,0.01,weatherlink.com 1.10,2013-10-25 10:14:00,
2013-10-25 06:29:00,31.9,28.0,30.18,West,261,3.0,4.0,86,0.00,,,0.01,weatherlink.com 1.10,2013-10-25 10:29:00,
2013-10-25 06:44:00,32.4,28.0,30.18,WSW,238,3.0,5.0,85,0.00,,,0.01,weatherlink.com 1.10,2013-10-25 10:44:00,
2013-10-25 06:59:00,31.6,28.0,30.19,SW,224,2.0,6.0,87,0.00,,,0.01,weatherlink.com 1.10,2013-10-25 10:59:00,
2013-10-25 07:15:00,32.0,29.0,30.19,SW,227,4.0,7.0,87,0.00,,,0.01,weatherlink.com 1.10,2013-10-25 11:15:00,
2013-10-25 07:30:00,31.9,29.0,30.19,SW,219,2.0,6.0,88,0.00,,,0.01,weatherlink.com 1.10,2013-10-25 11:30:00,
2013-10-25 07:45:00,32.1,29.0,30.20,SW,217,3.0,6.0,88,0.00,,,0.01,weatherlink.com 1.10,2013-10-25 11:45:00,
2013-10-25 08:00:00,33.2,30.0,30.20,SW,229,3.0,6.0,86,0.00,,,0.01,weatherlink.com 1.10,2013-10-25 12:00:00,
2013-10-25 08:15:00,33.4,29.0,30.20,SW,225,4.0,5.0,85,0.00,,,0.01,weatherlink.com 1.10,2013-10-25 12:15:00,
2013-10-25 08:30:00,33.4,30.0,30.20,SW,225,3.0,5.0,86,0.00,,,0.01,weatherlink.com 1.10,2013-10-25 12:30:00,
2013-10-25 08:45:00,33.9,31.0,30.21,SW,227,3.0,6.0,87,0.00,,,0.01,weatherlink.com 1.10,2013-10-25 12:45:00,
2013-10-25 09:00:00,34.2,31.0,30.21,SW,227,4.0,5.0,87,0.00,,,0.01,weatherlink.com 1.10,2013-10-25 13:00:00,
2013-10-25 09:15:00,34.6,31.0,30.21,SW,222,1.0,5.0,88,0.00,,,0.01,weatherlink.com 1.10,2013-10-25 13:15:00,
2013-10-25 09:30:00,35.2,32.0,30.21,SW,236,1.0,5.0,87,0.00,,,0.01,weatherlink.com 1.10,2013-10-25 13:30:00,
2013-10-25 09:45:00,35.9,32.0,30.21,SW,220,3.0,3.0,86,0.00,,,0.01,weatherlink.com 1.10,2013-10-25 13:45:00,
2013-10-25 10:00:00,36.8,32.0,30.21,WSW,244,2.0,5.0,82,0.00,,,0.01,weatherlink.com 1.10,2013-10-25 14:00:00,
2013-10-25 10:15:00,38.0,32.0,30.21,WSW,248,2.0,6.0,79,0.00,,,0.01,weatherlink.com 1.10,2013-10-25 14:15:00,
2013-10-25 10:30:00,39.1,32.0,30.20,SW,233,9.0,10.0,77,0.00,,,0.01,weatherlink.com 1.10,2013-10-25 14:30:00,
2013-10-25 10:45:00,39.5,33.0,30.20,SW,231,4.0,11.0,78,0.00,,,0.01,weatherlink.com 1.10,2013-10-25 14:45:00,
2013-10-25 11:00:00,40.5,34.0,30.19,SW,236,2.0,9.0,78,0.00,,,0.01,weatherlink.com 1.10,2013-10-25 15:00:00,
2013-10-25 11:15:00,40.6,33.0,30.19,WSW,246,9.0,14.0,75,0.00,,,0.01,weatherlink.com 1.10,2013-10-25 15:15:00,
2013-10-25 11:30:00,40.7,34.0,30.19,SW,225,2.0,11.0,76,0.00,,,0.01,weatherlink.com 1.10,2013-10-25 15:30:00,
2013-10-25 11:45:00,41.1,34.0,30.19,West,265,7.0,9.0,75,0.00,,,0.01,weatherlink.com 1.10,2013-10-25 15:45:00,
2013-10-25 12:00:00,41.3,35.0,30.18,West,273,9.0,9.0,77,0.00,,,0.01,weatherlink.com 1.10,2013-10-25 16:00:00,
2013-10-25 12:15:00,42.2,34.0,30.18,SW,235,7.0,13.0,73,0.00,,,0.01,weatherlink.com 1.10,2013-10-25 16:15:00,
2013-10-25 12:30:00,42.5,34.0,30.18,West,261,10.0,15.0,71,0.00,,,0.01,weatherlink.com 1.10,2013-10-25 16:30:00,
2013-10-25 12:45:00,42.7,34.0,30.17,West,260,9.0,12.0,70,0.00,,,0.01,weatherlink.com 1.10,2013-10-25 16:45:00,
2013-10-25 13:00:00,43.3,33.0,30.17,WSW,250,7.0,14.0,67,0.00,,,0.01,weatherlink.com 1.10,2013-10-25 17:00:00,
2013-10-25 13:15:00,43.0,33.0,30.16,WSW,256,8.0,13.0,67,0.00,,,0.01,weatherlink.com 1.10,2013-10-25 17:15:00,
2013-10-25 13:30:00,44.2,33.0,30.15,SW,231,6.0,18.0,64,0.00,,,0.01,weatherlink.com 1.10,2013-10-25 17:30:00,
2013-10-25 13:45:00,44.7,32.0,30.15,WSW,241,10.0,20.0,61,0.00,,,0.01,weatherlink.com 1.10,2013-10-25 17:45:00,
2013-10-25 14:00:00,44.7,33.0,30.14,WSW,240,11.0,19.0,65,0.00,,,0.01,weatherlink.com 1.10,2013-10-25 18:00:00,
2013-10-25 14:15:00,44.5,33.0,30.13,SW,227,9.0,19.0,64,0.00,,,0.01,weatherlink.com 1.10,2013-10-25 18:15:00,
2013-10-25 14:30:00,44.3,32.0,30.13,WSW,239,5.0,23.0,62,0.00,,,0.01,weatherlink.com 1.10,2013-10-25 18:30:00,
2013-10-25 14:45:00,44.3,31.0,30.13,WSW,242,10.0,21.0,59,0.00,,,0.01,weatherlink.com 1.10,2013-10-25 18:45:00,
2013-10-25 15:00:00,44.1,30.0,30.12,WNW,292,10.0,23.0,57,0.00,,,0.01,weatherlink.com 1.10,2013-10-25 19:00:00,
2013-10-25 15:15:00,44.4,30.0,30.11,SSW,211,6.0,17.0,57,0.00,,,0.01,weatherlink.com 1.10,2013-10-25 19:15:00,
2013-10-25 15:30:00,44.5,30.0,30.11,West,277,15.0,21.0,58,0.00,,,0.01,weatherlink.com 1.10,2013-10-25 19:30:00,
2013-10-25 15:45:00,44.3,31.0,30.10,WSW,250,12.0,21.0,60,0.00,,,0.01,weatherlink.com 1.10,2013-10-25 19:45:00,
2013-10-25 16:00:00,43.8,31.0,30.09,WSW,242,9.0,16.0,62,0.00,,,0.01,weatherlink.com 1.10,2013-10-25 20:00:00,
2013-10-25 16:15:00,43.4,32.0,30.09,West,277,7.0,18.0,64,0.00,,,0.01,weatherlink.com 1.10,2013-10-25 20:15:00,
2013-10-25 16:30:00,43.4,32.0,30.09,West,263,9.0,15.0,65,0.00,,,0.01,weatherlink.com 1.10,2013-10-25 20:30:00,
2013-10-25 16:45:00,43.1,33.0,30.09,West,262,12.0,18.0,67,0.00,,,0.01,weatherlink.com 1.10,2013-10-25 20:45:00,
2013-10-25 17:00:00,41.1,34.0,30.08,South,176,5.0,18.0,75,0.00,,,0.01,weatherlink.com 1.10,2013-10-25 21:00:00,
2013-10-25 17:15:00,40.6,34.0,30.07,SSW,205,5.0,11.0,78,0.00,,,0.01,weatherlink.com 1.10,2013-10-25 21:15:00,
2013-10-25 17:30:00,41.0,35.0,30.06,WSW,249,10.0,18.0,78,0.00,,,0.01,weatherlink.com 1.10,2013-10-25 21:30:00,
2013-10-25 17:45:00,40.9,34.0,30.05,SW,234,2.0,12.0,77,0.00,,,0.00,weatherlink.com 1.10,2013-10-25 21:45:00,
2013-10-25 18:00:00,41.3,34.0,30.05,WSW,245,9.0,15.0,74,0.00,,,0.00,weatherlink.com 1.10,2013-10-25 22:00:00,
2013-10-25 18:15:00,41.6,33.0,30.03,West,281,6.0,11.0,71,0.00,,,0.00,weatherlink.com 1.10,2013-10-25 22:15:00,
2013-10-25 18:30:00,42.3,32.0,30.03,SSW,213,7.0,22.0,67,0.00,,,0.00,weatherlink.com 1.10,2013-10-25 22:30:00,
2013-10-25 18:45:00,42.5,31.0,30.02,WSW,240,4.0,18.0,65,0.00,,,0.00,weatherlink.com 1.10,2013-10-25 22:45:00,
2013-10-25 19:00:00,42.5,31.0,30.02,SW,220,7.0,15.0,63,0.00,,,0.00,weatherlink.com 1.10,2013-10-25 23:00:00,
2013-10-25 19:15:00,42.4,31.0,30.01,SW,226,7.0,17.0,64,0.00,,,0.00,weatherlink.com 1.10,2013-10-25 23:15:00,
2013-10-25 19:30:00,42.2,31.0,30.01,SSW,199,7.0,16.0,64,0.00,,,0.00,weatherlink.com 1.10,2013-10-25 23:30:00,
2013-10-25 19:45:00,42.2,31.0,30.00,SSW,204,7.0,17.0,64,0.00,,,0.00,weatherlink.com 1.10,2013-10-25 23:45:00,
2013-10-25 20:00:00,42.1,31.0,29.99,SSW,198,8.0,24.0,64,0.00,,,0.00,weatherlink.com 1.10,2013-10-26 00:00:00,
2013-10-25 20:16:00,42.0,30.0,29.99,SSE,167,9.0,25.0,63,0.00,,,0.00,weatherlink.com 1.10,2013-10-26 00:16:00,
2013-10-25 20:31:00,41.9,30.0,29.98,SSW,199,4.0,18.0,63,0.00,,,0.00,weatherlink.com 1.10,2013-10-26 00:31:00,
2013-10-25 20:46:00,41.7,30.0,29.97,SW,220,9.0,19.0,64,0.00,,,0.00,weatherlink.com 1.10,2013-10-26 00:46:00,
2013-10-25 21:01:00,41.5,30.0,29.95,South,190,5.0,19.0,64,0.00,,,0.00,weatherlink.com 1.10,2013-10-26 01:01:00,
2013-10-25 21:16:00,41.1,30.0,29.95,South,182,9.0,21.0,66,0.00,,,0.00,weatherlink.com 1.10,2013-10-26 01:16:00,
2013-10-25 21:31:00,41.3,30.0,29.94,South,183,5.0,16.0,65,0.00,,,0.00,weatherlink.com 1.10,2013-10-26 01:31:00,
2013-10-25 21:46:00,41.7,31.0,29.93,South,188,9.0,19.0,65,0.00,,,0.00,weatherlink.com 1.10,2013-10-26 01:46:00,
2013-10-25 22:01:00,41.6,30.0,29.93,SW,217,11.0,16.0,64,0.00,,,0.00,weatherlink.com 1.10,2013-10-26 02:01:00,
2013-10-25 22:16:00,41.6,31.0,29.92,SSW,200,12.0,15.0,65,0.00,,,0.00,weatherlink.com 1.10,2013-10-26 02:16:00,
2013-10-25 22:31:00,41.5,31.0,29.90,SW,215,11.0,17.0,66,0.00,,,0.00,weatherlink.com 1.10,2013-10-26 02:31:00,
2013-10-25 23:01:00,41.5,33.0,29.88,South,182,5.0,24.0,71,0.00,,,0.00,weatherlink.com 1.10,2013-10-26 03:01:00,
2013-10-25 23:16:00,39.6,35.0,29.87,SSW,209,8.0,26.0,83,0.01,,,0.01,weatherlink.com 1.10,2013-10-26 03:16:00,
2013-10-25 23:31:00,38.7,36.0,29.86,SSW,211,6.0,21.0,88,0.02,,,0.02,weatherlink.com 1.10,2013-10-26 03:31:00,
2013-10-25 23:46:00,38.5,36.0,29.83,SSW,194,9.0,17.0,89,0.03,,,0.03,weatherlink.com 1.10,2013-10-26 03:46:00,